KC5DAQ-29 Weather Reports


Display with metric or nautical units.
time (UTC)temp
F
wind
direction
speed
MPH
gust
MPH
rain 1hr
in
rain 24hr
in
rain mn
in
humidity
%
barometer
mb
20260505041702 73 148 1.0 5.0 0.00 0.00 0.00 100 1008.3
20260505041602 73 173 2.0 5.0 0.00 0.00 0.00 100 1008.3
20260505041504 73 164 2.0 5.0 0.00 0.00 0.00 100 1008.3
20260505041403 73 162 1.0 5.0 0.00 0.00 0.00 100 1008.3
20260505041302 73 180 2.0 5.0 0.00 0.00 0.00 100 1008.4
20260505041203 73 180 2.0 5.0 0.00 0.00 0.00 100 1008.4
20260505041103 73 180 2.0 5.0 0.00 0.00 0.00 100 1008.4
20260505041005 73 192 2.0 5.0 0.00 0.00 0.00 100 1008.4
20260505040902 73 161 1.0 5.0 0.00 0.00 0.00 100 1008.3
20260505040803 73 168 2.0 6.0 0.00 0.00 0.00 100 1008.3
20260505040701 73 165 2.0 6.0 0.00 0.00 0.00 100 1008.3
20260505040604 73 161 1.0 6.0 0.00 0.00 0.00 100 1008.3
20260505040502 73 140 2.0 6.0 0.00 0.00 0.00 100 1008.2
20260505040404 73 169 3.0 6.0 0.00 0.00 0.00 100 1008.4
20260505040302 73 164 3.0 6.0 0.00 0.00 0.00 100 1008.3
20260505040204 73 173 3.0 6.0 0.00 0.00 0.00 100 1008.3
20260505040004 73 162 3.0 6.0 0.00 0.00 0.00 100 1008.3
20260505035904 73 166 2.0 7.0 0.00 0.00 0.00 100 1008.4
20260505035801 73 169 1.0 7.0 0.00 0.00 0.00 100 1008.3
20260505035704 73 168 1.0 7.0 0.00 0.00 0.00 100 1008.4
20260505035603 73 169 2.0 7.0 0.00 0.00 0.00 100 1008.3
20260505035502 73 151 3.0 7.0 0.00 0.00 0.00 100 1008.3
20260505035403 73 152 2.0 7.0 0.00 0.00 0.00 100 1008.3
20260505035304 73 182 1.0 7.0 0.00 0.00 0.00 100 1008.2
20260505035203 73 168 2.0 7.0 0.00 0.00 0.00 100 1008.4
20260505035102 73 164 4.0 7.0 0.00 0.00 0.00 100 1008.3
20260505035004 73 121 3.0 7.0 0.00 0.00 0.00 100 1008.4
20260505034904 74 154 2.0 5.0 0.00 0.00 0.00 100 1008.4
20260505034803 74 164 2.0 6.0 0.00 0.00 0.00 100 1008.5
20260505034703 74 172 3.0 6.0 0.00 0.00 0.00 100 1008.4
20260505034603 74 155 3.0 6.0 0.00 0.00 0.00 100 1008.5
20260505034503 74 133 3.0 9.0 0.00 0.00 0.00 100 1008.5
20260505034403 74 155 1.0 9.0 0.00 0.00 0.00 100 1008.6
20260505034303 74 166 1.0 9.0 0.00 0.00 0.00 100 1008.7
20260505034202 74 166 2.0 9.0 0.00 0.00 0.00 100 1008.7
20260505034104 74 168 2.0 9.0 0.00 0.00 0.00 100 1008.7
20260505034001 74 162 3.0 9.0 0.00 0.00 0.00 100 1008.7
20260505033903 74 172 3.0 9.0 0.00 0.00 0.00 100 1008.6
20260505033803 74 162 2.0 9.0 0.00 0.00 0.00 100 1008.6
20260505033703 74 179 3.0 9.0 0.00 0.00 0.00 100 1008.6
20260505033603 74 151 3.0 9.0 0.00 0.00 0.00 100 1008.7
20260505033502 74 148 2.0 6.0 0.00 0.00 0.00 100 1008.6
20260505033402 73 159 2.0 6.0 0.00 0.00 0.00 100 1008.6
20260505033303 73 135 2.0 7.0 0.00 0.00 0.00 100 1008.6
20260505033203 73 133 4.0 7.0 0.00 0.00 0.00 100 1008.7
20260505033104 73 207 3.0 7.0 0.00 0.00 0.00 100 1008.6
20260505033001 73 168 2.0 7.0 0.00 0.00 0.00 100 1008.6
20260505032903 73 155 1.0 7.0 0.00 0.00 0.00 100 1008.6
20260505032803 73 180 1.0 7.0 0.00 0.00 0.00 100 1008.7
20260505032703 73 182 2.0 9.0 0.00 0.00 0.00 100 1008.5
20260505032604 74 196 2.0 9.0 0.00 0.00 0.00 100 1008.6
20260505032503 74 178 3.0 9.0 0.00 0.00 0.00 100 1008.6
20260505032401 74 196 3.0 9.0 0.00 0.00 0.00 100 1008.5
20260505032304 74 151 2.0 9.0 0.00 0.00 0.00 100 1008.5
20260505032203 74 145 2.0 9.0 0.00 0.00 0.00 100 1008.5
20260505032102 74 224 2.0 9.0 0.00 0.00 0.00 100 1008.5
20260505032004 74 155 2.0 9.0 0.00 0.00 0.00 100 1008.6
20260505031901 74 149 4.0 9.0 0.00 0.00 0.00 100 1008.5
20260505031803 73 152 5.0 9.0 0.00 0.00 0.00 100 1008.5
20260505031702 73 230 4.0 9.0 0.00 0.00 0.00 100 1008.5
20260505031602 73 159 3.0 9.0 0.00 0.00 0.00 100 1008.5
20260505031504 73 131 3.0 9.0 0.00 0.00 0.00 100 1008.4
20260505031404 73 151 3.0 9.0 0.00 0.00 0.00 100 1008.4
20260505031303 73 137 2.0 9.0 0.00 0.00 0.00 100 1008.4
20260505031203 73 157 2.0 9.0 0.00 0.00 0.00 100 1008.4
20260505031103 73 173 4.0 9.0 0.00 0.00 0.00 100 1008.4
20260505031003 73 149 4.0 9.0 0.00 0.00 0.00 100 1008.4
20260505030900 73 172 5.0 9.0 0.00 0.00 0.00 100 1008.4
20260505030759 73 161 6.0 9.0 0.00 0.00 0.00 100 1008.3
20260505030658 73 164 3.0 7.0 0.00 0.00 0.00 100 1008.4
20260505030554 73 180 3.0 5.0 0.00 0.00 0.00 100 1008.4
20260505030453 73 114 3.0 6.0 0.00 0.00 0.00 100 1008.4
20260505030349 73 158 2.0 6.0 0.00 0.00 0.00 100 1008.3
20260505030233 73 171 2.0 6.0 0.00 0.00 0.00 100 1008.3
20260505030132 73 175 2.0 6.0 0.00 0.00 0.00 100 1008.3
20260505030033 73 157 2.0 6.0 0.00 0.00 0.00 100 1008.3
20260505025932 73 161 3.0 6.0 0.00 0.00 0.00 100 1008.3
20260505025832 73 179 2.0 6.0 0.00 0.00 0.00 100 1008.4
20260505025731 73 159 2.0 6.0 0.00 0.00 0.00 100 1008.4
20260505025631 73 144 2.0 6.0 0.00 0.00 0.00 100 1008.3
20260505025531 73 169 1.0 5.0 0.00 0.00 0.00 100 1008.4
20260505025431 73 169 2.0 5.0 0.00 0.00 0.00 100 1008.4
20260505025331 73 168 3.0 5.0 0.00 0.00 0.00 100 1008.4
20260505025231 73 175 2.0 5.0 0.00 0.00 0.00 100 1008.5
20260505025131 73 137 2.0 4.0 0.00 0.00 0.00 100 1008.4
20260505025032 73 173 2.0 6.0 0.00 0.00 0.00 100 1008.4
20260505024931 73 164 2.0 6.0 0.00 0.00 0.00 100 1008.5
20260505024831 73 157 2.0 6.0 0.00 0.00 0.00 100 1008.5
20260505024732 73 159 2.0 6.0 0.00 0.00 0.00 100 1008.5
20260505024631 73 152 2.0 6.0 0.00 0.00 0.00 100 1008.5
20260505024529 73 148 2.0 6.0 0.00 0.00 0.00 100 1008.5
20260505024428 73 141 3.0 6.0 0.00 0.00 0.00 100 1008.6
20260505024310 73 158 3.0 6.0 0.00 0.00 0.00 100 1008.5
20260505024211 73 171 3.0 6.0 0.00 0.00 0.00 100 1008.5
20260505024109 73 189 3.0 6.0 0.00 0.00 0.00 100 1008.5
20260505024011 73 223 3.0 6.0 0.00 0.00 0.00 100 1008.4
20260505023910 73 148 2.0 6.0 0.00 0.00 0.00 100 1008.5
20260505023809 73 206 3.0 6.0 0.00 0.00 0.00 100 1008.4
20260505023710 73 162 4.0 6.0 0.00 0.00 0.00 100 1008.4
20260505023610 73 169 3.0 6.0 0.00 0.00 0.00 100 1008.4
20260505023510 73 169 3.0 6.0 0.00 0.00 0.00 100 1008.5
20260505023410 73 175 4.0 6.0 0.00 0.00 0.00 100 1008.4
20260505023310 73 168 3.0 6.0 0.00 0.00 0.00 100 1008.4
20260505023210 74 158 3.0 6.0 0.00 0.00 0.00 100 1008.5
20260505023110 74 235 2.0 6.0 0.00 0.00 0.00 100 1008.4
20260505023009 74 176 2.0 6.0 0.00 0.00 0.00 100 1008.4
20260505022909 74 179 2.0 10.0 0.00 0.00 0.00 100 1008.4
20260505022810 74 149 2.0 10.0 0.00 0.00 0.00 100 1008.4
20260505022711 73 138 2.0 10.0 0.00 0.00 0.00 100 1008.4
20260505022611 73 157 3.0 10.0 0.00 0.00 0.00 100 1008.4
20260505022511 73 159 3.0 10.0 0.00 0.00 0.00 100 1008.4
20260505022410 73 159 3.0 10.0 0.00 0.00 0.00 100 1008.4
20260505022309 73 145 3.0 10.0 0.00 0.00 0.00 100 1008.4
20260505022210 73 169 5.0 10.0 0.00 0.00 0.00 100 1008.4
20260505022110 73 159 4.0 10.0 0.00 0.00 0.00 100 1008.5
20260505022009 73 166 3.0 9.0 0.00 0.00 0.00 100 1008.5
20260505021910 73 152 4.0 9.0 0.00 0.00 0.00 100 1008.5
20260505021809 72 204 3.0 12.0 0.00 0.00 0.00 100 1008.5
20260505021710 73 162 2.0 12.0 0.00 0.00 0.00 100 1008.5
20260505021608 73 193 2.0 12.0 0.00 0.00 0.00 100 1008.5
20260505021510 73 168 4.0 12.0 0.00 0.00 0.00 100 1008.4
20260505021409 73 168 4.0 12.0 0.00 0.00 0.00 100 1008.4
20260505021311 73 152 4.0 12.0 0.00 0.00 0.00 100 1008.5
20260505021209 73 231 4.0 12.0 0.00 0.00 0.00 100 1008.4
20260505021111 73 172 4.0 12.0 0.00 0.00 0.00 100 1008.4
20260505021008 73 147 5.0 12.0 0.00 0.00 0.00 100 1008.4
20260505020909 73 164 5.0 12.0 0.00 0.00 0.00 100 1008.4
20260505020811 73 168 3.0 5.0 0.00 0.00 0.00 100 1008.4
20260505020709 73 157 2.0 5.0 0.00 0.00 0.00 100 1008.4
20260505020609 73 179 2.0 5.0 0.00 0.00 0.00 100 1008.4
20260505020510 73 180 2.0 5.0 0.00 0.00 0.00 100 1008.2
20260505020410 73 186 2.0 5.0 0.00 0.00 0.00 100 1008.3
20260505020310 73 166 2.0 5.0 0.00 0.00 0.00 100 1008.3
20260505020210 73 178 2.0 5.0 0.00 0.00 0.00 100 1008.3
20260505020109 73 180 1.0 4.0 0.00 0.00 0.00 100 1008.3
20260505020010 72 192 2.0 4.0 0.00 0.00 0.00 100 1008.3
20260505015910 72 162 2.0 4.0 0.00 0.00 0.00 100 1008.4
20260505015808 72 165 2.0 4.0 0.00 0.00 0.00 100 1008.2
20260505015709 72 155 2.0 4.0 0.00 0.00 0.00 100 1008.3
20260505015610 72 149 1.0 4.0 0.00 0.00 0.00 100 1008.3
20260505015508 72 164 1.0 4.0 0.00 0.00 0.00 100 1008.2
20260505015408 72 165 1.0 4.0 0.00 0.00 0.00 100 1008.2
20260505015308 72 158 1.0 4.0 0.00 0.00 0.00 100 1008.2
20260505015210 73 148 0.0 3.0 0.00 0.00 0.00 100 1008.1
20260505015108 73 148 0.0 3.0 0.00 0.00 0.00 100 1008.1
20260505015009 73 148 1.0 3.0 0.00 0.00 0.00 100 1008.0
20260505014909 73 140 1.0 3.0 0.00 0.00 0.00 100 1008.0
20260505014809 73 140 1.0 3.0 0.00 0.00 0.00 100 1008.0
20260505014709 73 145 0.0 4.0 0.00 0.00 0.00 100 1007.8
20260505014610 73 144 0.0 4.0 0.00 0.00 0.00 100 1007.8
20260505014509 73 144 1.0 5.0 0.00 0.00 0.00 100 1007.8
20260505014410 73 99 1.0 5.0 0.00 0.00 0.00 100 1007.7
20260505014308 73 142 1.0 5.0 0.00 0.00 0.00 100 1007.7
20260505014210 73 142 2.0 5.0 0.00 0.00 0.00 100 1007.8
20260505014109 73 144 2.0 5.0 0.00 0.00 0.00 100 1007.8
20260505014009 73 141 2.0 5.0 0.00 0.00 0.00 100 1007.8
20260505013910 73 161 2.0 5.0 0.00 0.00 0.00 100 1007.9
20260505013808 73 159 2.0 5.0 0.00 0.00 0.00 100 1008.0
20260505013709 73 158 3.0 5.0 0.00 0.00 0.00 100 1008.0
20260505013609 73 147 3.0 5.0 0.00 0.00 0.00 100 1007.9
20260505013509 73 135 3.0 5.0 0.00 0.00 0.00 100 1007.9
20260505013408 73 134 2.0 5.0 0.00 0.00 0.00 100 1008.0
20260505013310 73 169 2.0 5.0 0.00 0.00 0.00 100 1007.9
20260505013210 73 124 2.0 5.0 0.00 0.00 0.00 100 1007.9
20260505013109 73 161 2.0 5.0 0.00 0.00 0.00 100 1007.9
20260505013009 73 172 2.0 5.0 0.00 0.00 0.00 100 1007.9
20260505012908 73 121 1.0 5.0 0.00 0.00 0.00 100 1007.9
20260505012810 73 164 2.0 5.0 0.00 0.00 0.00 100 1008.0
20260505012710 74 164 3.0 5.0 0.00 0.00 0.00 100 1007.9
20260505012610 74 159 2.0 4.0 0.00 0.00 0.00 100 1008.0
20260505012510 74 149 2.0 3.0 0.00 0.00 0.00 100 1007.9
20260505012410 74 138 2.0 3.0 0.00 0.00 0.00 100 1008.0
20260505012310 74 145 1.0 4.0 0.00 0.00 0.00 100 1008.0
20260505012208 74 151 2.0 4.0 0.00 0.00 0.00 100 1008.0
20260505012110 74 152 2.0 4.0 0.00 0.00 0.00 100 1008.0
20260505012008 74 164 1.0 4.0 0.00 0.00 0.00 100 1008.0
20260505011908 74 141 1.0 5.0 0.00 0.00 0.00 100 1008.0
20260505011809 74 141 1.0 5.0 0.00 0.00 0.00 100 1008.0
20260505011708 74 141 1.0 5.0 0.00 0.00 0.00 100 1008.0
20260505011608 74 149 1.0 5.0 0.00 0.00 0.00 100 1008.0
20260505011510 74 149 2.0 5.0 0.00 0.00 0.00 100 1008.0
20260505011408 74 149 2.0 5.0 0.00 0.00 0.00 100 1008.0
20260505011308 74 152 2.0 5.0 0.00 0.00 0.00 100 1008.0
20260505011207 74 90 2.0 5.0 0.00 0.00 0.00 100 1007.9
20260505011108 74 155 2.0 5.0 0.00 0.00 0.00 100 1007.9
20260505011009 74 155 2.0 5.0 0.00 0.00 0.00 100 1008.0
20260505010910 74 142 1.0 5.0 0.00 0.00 0.00 100 1008.0
20260505010808 74 142 1.0 5.0 0.00 0.00 0.00 100 1008.0
20260505010709 74 142 2.0 5.0 0.00 0.00 0.00 100 1008.1
20260505010607 74 141 1.0 5.0 0.00 0.00 0.00 100 1008.1
20260505010508 74 144 2.0 5.0 0.00 0.00 0.00 100 1008.0
20260505010409 74 141 2.0 5.0 0.00 0.00 0.00 100 1008.0
20260505010308 74 165 2.0 5.0 0.00 0.00 0.00 100 1008.0
20260505010208 74 144 1.0 5.0 0.00 0.00 0.00 100 1008.0
20260505010108 74 157 2.0 5.0 0.00 0.00 0.00 100 1008.0
20260505010003 74 157 1.0 5.0 0.00 0.00 0.00 100 1008.0
20260505005902 74 155 1.0 5.0 0.00 0.00 0.00 100 1007.9
20260505005803 75 157 2.0 9.0 0.00 0.00 0.00 100 1008.0
20260505005702 75 157 3.0 9.0 0.00 0.00 0.00 100 1007.9
20260505005602 75 155 4.0 9.0 0.00 0.00 0.00 100 1007.9
20260505005503 75 196 2.0 9.0 0.00 0.00 0.00 100 1007.8
20260505005404 75 154 1.0 9.0 0.00 0.00 0.00 100 1007.8
20260505005304 75 158 2.0 9.0 0.00 0.00 0.00 100 1007.8
20260505005204 74 137 2.0 9.0 0.00 0.00 0.00 100 1007.8
20260505005104 74 148 2.0 9.0 0.00 0.00 0.00 100 1007.8
20260505005003 74 144 3.0 9.0 0.00 0.00 0.00 100 1007.7
20260505004904 74 123 3.0 9.0 0.00 0.00 0.00 100 1007.8
20260505004803 74 173 2.0 5.0 0.00 0.00 0.00 100 1007.8
20260505004702 74 138 2.0 5.0 0.00 0.00 0.00 100 1007.7
20260505004603 74 162 2.0 5.0 0.00 0.00 0.00 100 1007.8
20260505004503 74 157 2.0 9.0 0.00 0.00 0.00 100 1007.7
20260505004404 74 145 2.0 9.0 0.00 0.00 0.00 100 1007.7
20260505004303 74 151 3.0 9.0 0.00 0.00 0.00 100 1007.7
20260505004203 75 149 4.0 9.0 0.00 0.00 0.00 100 1007.7
20260505004103 75 164 3.0 9.0 0.00 0.00 0.00 100 1007.7
20260505004003 75 125 2.0 9.0 0.00 0.00 0.00 100 1007.7
20260505003902 75 154 2.0 9.0 0.00 0.00 0.00 100 1007.7
20260505003803 75 130 4.0 9.0 0.00 0.00 0.00 100 1007.7
20260505003701 75 135 4.0 9.0 0.00 0.00 0.00 100 1007.7
20260505003603 75 192 4.0 9.0 0.00 0.00 0.00 100 1007.8
20260505003504 75 145 3.0 7.0 0.00 0.00 0.00 100 1007.8
20260505003403 75 165 2.0 7.0 0.00 0.00 0.00 100 1007.8
20260505003303 75 148 2.0 7.0 0.00 0.00 0.00 100 1007.8
20260505003201 75 148 2.0 7.0 0.00 0.00 0.00 100 1007.8
20260505003104 75 154 3.0 7.0 0.00 0.00 0.00 100 1007.7
20260505003004 75 154 4.0 7.0 0.00 0.00 0.00 100 1007.8
20260505002902 75 183 3.0 7.0 0.00 0.00 0.00 100 1007.8
20260505002802 75 141 3.0 6.0 0.00 0.00 0.00 100 1007.8
20260505002703 75 140 2.0 6.0 0.00 0.00 0.00 100 1007.9
20260505002602 75 157 3.0 6.0 0.00 0.00 0.00 100 1007.9
20260505002503 75 162 3.0 6.0 0.00 0.00 0.00 100 1007.9
20260505002404 75 151 3.0 6.0 0.00 0.00 0.00 100 1007.9
20260505002304 75 158 2.0 6.0 0.00 0.00 0.00 100 1008.0
20260505002204 75 158 3.0 6.0 0.00 0.00 0.00 100 1007.9
20260505002104 75 164 3.0 6.0 0.00 0.00 0.00 100 1008.0
20260505002003 75 141 4.0 6.0 0.00 0.00 0.00 100 1008.0
20260505001904 75 140 4.0 6.0 0.00 0.00 0.00 100 1008.0
20260505001804 75 175 2.0 6.0 0.00 0.00 0.00 100 1007.9
20260505001703 75 166 2.0 5.0 0.00 0.00 0.00 100 1008.0
20260505001602 75 113 3.0 5.0 0.00 0.00 0.00 100 1007.9
20260505001504 75 137 3.0 5.0 0.00 0.00 0.00 100 1008.0
20260505001404 75 147 2.0 4.0 0.00 0.00 0.00 100 1008.0
20260505001302 75 141 2.0 6.0 0.00 0.00 0.00 100 1007.9
20260505001202 75 165 2.0 7.0 0.00 0.00 0.00 100 1008.0
20260505001105 75 164 2.0 7.0 0.00 0.00 0.00 100 1007.9
20260505001003 75 161 2.0 7.0 0.00 0.00 0.00 100 1007.9
20260505000903 75 159 4.0 9.0 0.00 0.00 0.00 100 1007.9
20260505000803 75 159 4.0 9.0 0.00 0.00 0.00 100 1008.0
20260505000704 75 159 4.0 13.0 0.00 0.00 0.00 100 1008.0
20260505000603 75 159 4.0 13.0 0.00 0.00 0.00 100 1007.9
20260505000432 75 140 5.0 13.0 0.00 0.00 0.00 100 1007.9
20260505000332 75 157 5.0 13.0 0.00 0.00 0.00 100 1007.9
20260505000233 75 169 4.0 13.0 0.00 0.00 0.00 100 1007.9
20260505000132 75 165 3.0 13.0 0.00 0.00 0.00 100 1008.0
20260505000032 75 155 4.0 13.0 0.00 0.00 0.00 100 1008.0
20260504235932 75 158 6.0 13.0 0.00 0.00 0.00 100 1008.1
20260504235831 75 159 5.0 13.0 0.00 0.00 0.00 100 1008.1
20260504235731 75 164 4.0 10.0 0.00 0.00 0.00 100 1008.0
20260504235631 75 152 4.0 6.0 0.00 0.00 0.00 100 1008.0
20260504235532 76 162 2.0 6.0 0.00 0.00 0.00 100 1008.1
20260504235432 76 158 2.0 6.0 0.00 0.00 0.00 100 1008.1
20260504235328 76 107 3.0 6.0 0.00 0.00 0.00 100 1008.1
20260504235213 76 152 4.0 6.0 0.00 0.00 0.00 100 1008.1
20260504235107 76 152 3.0 11.0 0.00 0.00 0.00 100 1008.0
20260504235007 76 155 3.0 11.0 0.00 0.00 0.00 100 1008.0
20260504234906 76 161 2.0 11.0 0.00 0.00 0.00 100 1007.9
20260504234806 76 151 2.0 11.0 0.00 0.00 0.00 100 1008.0
20260504234707 76 149 3.0 11.0 0.00 0.00 0.00 100 1008.0
20260504234606 76 165 3.0 11.0 0.00 0.00 0.00 100 1008.0
20260504234506 76 151 3.0 11.0 0.00 0.00 0.00 100 1008.1
20260504234405 76 151 4.0 11.0 0.00 0.00 0.00 100 1008.0
20260504234306 76 103 5.0 11.0 0.00 0.00 0.00 100 1008.1
20260504234205 76 125 5.0 11.0 0.00 0.00 0.00 100 1008.1
20260504234105 76 185 3.0 9.0 0.00 0.00 0.00 100 1008.0
20260504234005 76 140 4.0 9.0 0.00 0.00 0.00 100 1008.0
20260504233905 76 152 3.0 10.0 0.00 0.00 0.00 100 1008.0
20260504233805 76 151 2.0 10.0 0.00 0.00 0.00 100 1008.1
20260504233705 76 141 4.0 10.0 0.00 0.00 0.00 100 1008.1
20260504233605 76 171 5.0 10.0 0.00 0.00 0.00 100 1008.1
20260504233505 76 145 4.0 10.0 0.00 0.00 0.00 100 1008.2
20260504233406 76 152 2.0 10.0 0.00 0.00 0.00 100 1008.2
20260504233305 76 107 2.0 10.0 0.00 0.00 0.00 100 1008.2
20260504233207 76 148 4.0 10.0 0.00 0.00 0.00 100 1008.3
20260504233104 76 137 4.0 11.0 0.00 0.00 0.00 100 1008.1
20260504233005 76 113 4.0 12.0 0.00 0.00 0.00 100 1008.2
20260504232905 76 125 3.0 12.0 0.00 0.00 0.00 100 1008.2
20260504232804 76 162 3.0 12.0 0.00 0.00 0.00 100 1008.2
20260504232706 76 138 3.0 12.0 0.00 0.00 0.00 100 1008.2
20260504232605 77 141 4.0 12.0 0.00 0.00 0.00 100 1008.3
20260504232506 77 154 3.0 12.0 0.00 0.00 0.00 100 1008.3
20260504232405 77 118 2.0 12.0 0.00 0.00 0.00 100 1008.3
20260504232305 77 147 4.0 12.0 0.00 0.00 0.00 100 1008.3
20260504232205 77 103 6.0 12.0 0.00 0.00 0.00 100 1008.3
20260504232105 77 148 5.0 12.0 0.00 0.00 0.00 100 1008.3
20260504232005 77 137 4.0 11.0 0.00 0.00 0.00 100 1008.4
20260504231905 77 157 4.0 11.0 0.00 0.00 0.00 100 1008.4
20260504231804 77 123 3.0 11.0 0.00 0.00 0.00 100 1008.3
20260504231705 77 127 2.0 11.0 0.00 0.00 0.00 100 1008.4
20260504231606 77 172 4.0 11.0 0.00 0.00 0.00 100 1008.3
20260504231504 77 134 5.0 11.0 0.00 0.00 0.00 100 1008.4
20260504231404 77 145 4.0 11.0 0.00 0.00 0.00 100 1008.4
20260504231304 77 123 4.0 11.0 0.00 0.00 0.00 100 1008.4
20260504231204 77 134 4.0 11.0 0.00 0.00 0.00 100 1008.5
20260504231104 77 158 3.0 13.0 0.00 0.00 0.00 100 1008.4
20260504231005 77 142 2.0 13.0 0.00 0.00 0.00 100 1008.5
20260504230905 77 131 3.0 13.0 0.00 0.00 0.00 100 1008.5
20260504230804 77 130 4.0 13.0 0.00 0.00 0.00 100 1008.4
20260504230705 77 169 4.0 13.0 0.00 0.00 0.00 100 1008.5
20260504230604 77 123 3.0 13.0 0.00 0.00 0.00 100 1008.5
20260504230505 77 116 4.0 13.0 0.00 0.00 0.00 100 1008.5
20260504230404 77 140 4.0 13.0 0.00 0.00 0.00 100 1008.5
20260504230304 77 179 4.0 13.0 0.00 0.00 0.00 100 1008.5
20260504230204 77 113 4.0 13.0 0.00 0.00 0.00 100 1008.4
20260504230104 77 128 3.0 10.0 0.00 0.00 0.00 100 1008.5
20260504230005 78 145 3.0 10.0 0.00 0.00 0.00 100 1008.3
20260504225904 78 161 3.0 10.0 0.00 0.00 0.00 100 1008.4
20260504225804 78 158 4.0 10.0 0.00 0.00 0.00 100 1008.3
20260504225704 78 100 4.0 10.0 0.00 0.00 0.00 100 1008.3
20260504225604 78 133 4.0 10.0 0.00 0.00 0.00 100 1008.3
20260504225504 77 144 3.0 7.0 0.00 0.00 0.00 100 1008.4
20260504225405 77 80 4.0 7.0 0.00 0.00 0.00 100 1008.3
20260504225304 77 131 3.0 7.0 0.00 0.00 0.00 100 1008.4
20260504225204 77 133 3.0 10.0 0.00 0.00 0.00 100 1008.5
20260504225104 77 157 4.0 10.0 0.00 0.00 0.00 100 1008.5
20260504225004 77 157 2.0 10.0 0.00 0.00 0.00 100 1008.5
20260504224904 77 96 2.0 10.0 0.00 0.00 0.00 100 1008.6
20260504224804 76 159 3.0 10.0 0.00 0.00 0.00 100 1008.6
20260504224704 76 137 3.0 10.0 0.00 0.00 0.00 100 1008.6
20260504224605 76 166 4.0 10.0 0.00 0.00 0.00 100 1008.6
20260504224504 76 128 4.0 10.0 0.00 0.00 0.00 100 1008.7
20260504224403 76 168 4.0 10.0 0.00 0.00 0.00 100 1008.6
20260504224303 76 134 4.0 10.0 0.00 0.00 0.00 100 1008.6
20260504224204 76 106 4.0 9.0 0.00 0.00 0.00 100 1008.7
20260504224105 76 161 4.0 9.0 0.00 0.00 0.00 100 1008.6
20260504224004 76 145 4.0 9.0 0.00 0.00 0.00 100 1008.6
20260504223904 76 162 4.0 9.0 0.00 0.00 0.00 100 1008.6
20260504223803 77 140 5.0 9.0 0.00 0.00 0.00 100 1008.7
20260504223704 77 169 4.0 9.0 0.00 0.00 0.00 100 1008.6
20260504223604 77 155 4.0 9.0 0.00 0.00 0.00 100 1008.6
20260504223504 77 179 5.0 9.0 0.00 0.00 0.00 100 1008.7
20260504223404 77 180 6.0 10.0 0.00 0.00 0.00 100 1008.7
20260504223303 77 135 4.0 10.0 0.00 0.00 0.00 100 1008.7
20260504223203 77 121 3.0 10.0 0.00 0.00 0.00 100 1008.6
20260504223103 77 103 4.0 10.0 0.00 0.00 0.00 100 1008.6
20260504223004 77 180 4.0 10.0 0.00 0.00 0.00 100 1008.8
20260504222904 77 100 4.0 10.0 0.00 0.00 0.00 100 1008.8
20260504222803 77 130 3.0 10.0 0.00 0.00 0.00 100 1008.8
20260504222704 77 144 4.0 10.0 0.00 0.00 0.00 100 1008.8
20260504222604 77 104 6.0 10.0 0.00 0.00 0.00 100 1008.9
20260504222504 77 159 8.0 10.0 0.00 0.00 0.00 100 1008.9
20260504222403 76 135 4.0 9.0 0.00 0.00 0.00 100 1009.0
20260504222305 76 135 4.0 10.0 0.00 0.00 0.00 100 1009.0
20260504222203 76 135 4.0 10.0 0.00 0.00 0.00 100 1009.0
20260504222103 76 135 4.0 10.0 0.00 0.00 0.00 100 1009.0
20260504222003 76 138 4.0 10.0 0.00 0.00 0.00 100 1009.0
20260504221903 76 168 4.0 10.0 0.00 0.00 0.00 100 1009.0
20260504221803 77 152 4.0 10.0 0.00 0.00 0.00 100 1008.9
20260504221703 77 124 4.0 10.0 0.00 0.00 0.00 100 1009.0
20260504221603 77 182 5.0 11.0 0.00 0.00 0.00 100 1008.9
20260504221504 77 152 6.0 11.0 0.00 0.00 0.00 100 1008.9
20260504221404 77 148 6.0 11.0 0.00 0.00 0.00 100 1008.9
20260504221303 77 111 4.0 11.0 0.00 0.00 0.00 100 1008.8
20260504221203 78 151 3.0 11.0 0.00 0.00 0.00 100 1008.9
20260504221102 78 93 2.0 11.0 0.00 0.00 0.00 100 1008.9
20260504221004 78 133 4.0 11.0 0.00 0.00 0.00 100 1008.9
20260504220903 78 92 5.0 14.0 0.00 0.00 0.00 100 1008.8
20260504220802 78 172 5.0 14.0 0.00 0.00 0.00 100 1009.0
20260504220703 78 110 4.0 14.0 0.00 0.00 0.00 100 1008.9
20260504220604 78 158 3.0 14.0 0.00 0.00 0.00 100 1009.0
20260504220504 78 121 3.0 14.0 0.00 0.00 0.00 100 1009.0
20260504220402 78 231 4.0 14.0 0.00 0.00 0.00 100 1009.0
20260504220302 78 141 3.0 14.0 0.00 0.00 0.00 100 1008.9
20260504220203 78 158 4.0 14.0 0.00 0.00 0.00 100 1008.9
20260504220004 79 141 6.0 14.0 0.00 0.00 0.00 100 1008.9
20260504215903 79 159 7.0 14.0 0.00 0.00 0.00 100 1008.9
20260504215804 78 157 5.0 14.0 0.00 0.00 0.00 100 1009.0
20260504215704 78 192 3.0 13.0 0.00 0.00 0.00 100 1009.0
20260504215602 78 162 5.0 13.0 0.00 0.00 0.00 100 1009.0
20260504215504 78 168 5.0 13.0 0.00 0.00 0.00 100 1009.0
20260504215402 78 138 3.0 13.0 0.00 0.00 0.00 100 1009.1
20260504215304 78 123 4.0 13.0 0.00 0.00 0.00 100 1009.0
20260504215202 78 154 5.0 13.0 0.00 0.00 0.00 100 1009.1
20260504215104 78 147 4.0 9.0 0.00 0.00 0.00 100 1009.1
20260504215002 79 161 4.0 9.0 0.00 0.00 0.00 100 1009.0
20260504214903 79 128 4.0 9.0 0.00 0.00 0.00 100 1009.0
20260504214803 79 128 4.0 9.0 0.00 0.00 0.00 100 1009.1
20260504214702 79 128 4.0 9.0 0.00 0.00 0.00 100 1009.1
20260504214602 79 128 4.0 9.0 0.00 0.00 0.00 100 1009.0
20260504214502 79 128 4.0 9.0 0.00 0.00 0.00 100 1009.0
20260504214403 79 128 4.0 9.0 0.00 0.00 0.00 100 1009.0
20260504214301 79 128 4.0 9.0 0.00 0.00 0.00 100 1008.9
20260504214201 79 137 5.0 9.0 0.00 0.00 0.00 100 1009.0
20260504214101 79 130 4.0 9.0 0.00 0.00 0.00 100 1009.0
20260504214000 79 121 4.0 9.0 0.00 0.00 0.00 100 1009.0
20260504213902 79 117 2.0 16.0 0.00 0.00 0.00 100 1009.0
20260504213801 79 117 2.0 16.0 0.00 0.00 0.00 100 1009.0
20260504213702 79 117 2.0 16.0 0.00 0.00 0.00 100 1009.0
20260504213602 79 148 2.0 16.0 0.00 0.00 0.00 100 1009.0
20260504213500 79 149 3.0 16.0 0.00 0.00 0.00 100 1009.0
20260504213400 79 131 5.0 16.0 0.00 0.00 0.00 100 1009.1
20260504213301 79 73 6.0 16.0 0.00 0.00 0.00 100 1009.1
20260504213201 79 145 5.0 16.0 0.00 0.00 0.00 100 1009.2
20260504213100 78 90 6.0 16.0 0.00 0.00 0.00 100 1009.2
20260504213001 78 149 7.0 16.0 0.00 0.00 0.00 100 1009.3
20260504212901 78 158 6.0 13.0 0.00 0.00 0.00 100 1009.3
20260504212800 79 151 6.0 13.0 0.00 0.00 0.00 100 1009.3
20260504212702 79 162 4.0 10.0 0.00 0.00 0.00 100 1009.3
20260504212601 79 168 3.0 10.0 0.00 0.00 0.00 100 1009.3
20260504212501 79 130 3.0 10.0 0.00 0.00 0.00 100 1009.2
20260504212401 80 127 3.0 11.0 0.00 0.00 0.00 100 1009.2
20260504212300 80 157 3.0 11.0 0.00 0.00 0.00 100 1009.3
20260504212201 80 99 4.0 11.0 0.00 0.00 0.00 100 1009.4
20260504212101 80 125 4.0 11.0 0.00 0.00 0.00 100 1009.4
20260504212001 80 157 5.0 11.0 0.00 0.00 0.00 100 1009.3
20260504211902 80 144 5.0 11.0 0.00 0.00 0.00 100 1009.4
20260504211800 80 145 5.0 11.0 0.00 0.00 0.00 100 1009.5
20260504211701 80 168 6.0 11.0 0.00 0.00 0.00 100 1009.4
20260504211549 80 149 6.0 11.0 0.00 0.00 0.00 100 1009.4
20260504211433 80 138 4.0 10.0 0.00 0.00 0.00 100 1009.4
20260504211330 80 83 4.0 10.0 0.00 0.00 0.00 100 1009.4
20260504211232 80 114 4.0 10.0 0.00 0.00 0.00 100 1009.4
20260504211130 80 144 3.0 10.0 0.00 0.00 0.00 100 1009.3
20260504211032 81 164 4.0 10.0 0.00 0.00 0.00 100 1009.3
20260504210932 81 107 4.0 10.0 0.00 0.00 0.00 100 1009.4
20260504210832 81 199 3.0 9.0 0.00 0.00 0.00 100 1009.4
20260504210731 81 148 3.0 9.0 0.00 0.00 0.00 100 1009.4
20260504210632 80 94 4.0 9.0 0.00 0.00 0.00 100 1009.5
20260504210528 80 130 4.0 9.0 0.00 0.00 0.00 100 1009.5
20260504210409 80 89 2.0 6.0 0.00 0.00 0.00 100 1009.5
20260504210305 80 121 1.0 6.0 0.00 0.00 0.00 100 1009.6
20260504210204 81 159 1.0 6.0 0.00 0.00 0.00 100 1009.7
20260504210002 81 161 4.0 7.0 0.00 0.00 0.00 100 1009.7
20260504205903 81 155 3.0 7.0 0.00 0.00 0.00 100 1009.7
20260504205802 82 149 2.0 7.0 0.00 0.00 0.00 100 1009.7
20260504205702 82 93 3.0 7.0 0.00 0.00 0.00 100 1009.7
20260504205603 82 162 2.0 7.0 0.00 0.00 0.00 100 1009.8
20260504205501 82 134 4.0 7.0 0.00 0.00 0.00 100 1009.8
20260504205402 82 145 4.0 7.0 0.00 0.00 0.00 100 1009.8
20260504205304 82 133 4.0 12.0 0.00 0.00 0.00 100 1009.7
20260504205202 82 134 5.0 12.0 0.00 0.00 0.00 100 1009.8
20260504205102 82 96 4.0 12.0 0.00 0.00 0.00 100 1009.7
20260504205004 82 147 3.0 12.0 0.00 0.00 0.00 100 1009.8
20260504204902 82 135 4.0 12.0 0.00 0.00 0.00 100 1009.8
20260504204804 82 104 4.0 12.0 0.00 0.00 0.00 100 1009.7
20260504204704 82 141 3.0 12.0 0.00 0.00 0.00 100 1009.7
20260504204601 82 79 3.0 12.0 0.00 0.00 0.00 100 1009.6
20260504204502 81 107 6.0 12.0 0.00 0.00 0.00 100 1009.6
20260504204403 81 106 6.0 12.0 0.00 0.00 0.00 100 1009.6
20260504204303 81 162 2.0 6.0 0.00 0.00 0.00 100 1009.7
20260504204203 81 94 3.0 9.0 0.00 0.00 0.00 100 1009.7
20260504204102 81 145 4.0 9.0 0.00 0.00 0.00 100 1009.8
20260504204004 81 175 4.0 9.0 0.00 0.00 0.00 100 1009.8
20260504203902 80 128 4.0 9.0 0.00 0.00 0.00 100 1009.9
20260504203802 80 120 3.0 9.0 0.00 0.00 0.00 100 1009.8
20260504203702 80 141 2.0 9.0 0.00 0.00 0.00 100 1009.9
20260504203603 81 155 3.0 9.0 0.00 0.00 0.00 100 1010.0
20260504203502 81 149 4.0 9.0 0.00 0.00 0.00 100 1010.0
20260504203401 81 152 4.0 9.0 0.00 0.00 0.00 100 1010.0
20260504203303 81 155 5.0 9.0 0.00 0.00 0.00 100 1009.9
20260504203203 81 165 3.0 10.0 0.00 0.00 0.00 100 1010.0
20260504203102 81 217 4.0 10.0 0.00 0.00 0.00 100 1010.0
20260504203005 81 79 3.0 10.0 0.00 0.00 0.00 100 1009.9
20260504202902 81 138 3.0 10.0 0.00 0.00 0.00 100 1010.0
20260504202803 81 147 4.0 10.0 0.00 0.00 0.00 100 1009.9
20260504202704 81 162 4.0 10.0 0.00 0.00 0.00 100 1009.9
20260504202603 81 133 3.0 12.0 0.00 0.00 0.00 100 1009.9
20260504202502 81 127 3.0 12.0 0.00 0.00 0.00 100 1010.0
20260504202403 81 137 4.0 12.0 0.00 0.00 0.00 100 1009.9
20260504202304 80 165 4.0 12.0 0.00 0.00 0.00 100 1010.0
20260504202202 80 166 4.0 12.0 0.00 0.00 0.00 100 1010.0
20260504202102 80 118 5.0 12.0 0.00 0.00 0.00 100 1010.0
20260504202003 80 158 5.0 12.0 0.00 0.00 0.00 100 1010.1
20260504201902 81 145 4.0 12.0 0.00 0.00 0.00 100 1010.1
20260504201802 81 147 5.0 12.0 0.00 0.00 0.00 100 1010.0
20260504201704 81 128 5.0 12.0 0.00 0.00 0.00 100 1010.1
20260504201602 80 151 3.0 11.0 0.00 0.00 0.00 100 1010.1
20260504201503 80 117 2.0 11.0 0.00 0.00 0.00 100 1010.0
20260504201404 80 133 3.0 11.0 0.00 0.00 0.00 100 1010.0
20260504201303 80 148 4.0 11.0 0.00 0.00 0.00 100 1010.0
20260504201202 80 134 4.0 11.0 0.00 0.00 0.00 100 1010.2
20260504201103 80 182 4.0 11.0 0.00 0.00 0.00 100 1010.2
20260504201004 80 117 4.0 11.0 0.00 0.00 0.00 100 1010.2
20260504200902 80 128 5.0 11.0 0.00 0.00 0.00 100 1010.2
20260504200803 80 109 5.0 11.0 0.00 0.00 0.00 100 1010.3
20260504200702 80 90 4.0 11.0 0.00 0.00 0.00 100 1010.2
20260504200604 80 159 5.0 11.0 0.00 0.00 0.00 100 1010.3
20260504200502 81 161 4.0 11.0 0.00 0.00 0.00 100 1010.3
20260504200402 81 161 4.0 11.0 0.00 0.00 0.00 100 1010.3
20260504200301 81 161 4.0 11.0 0.00 0.00 0.00 100 1010.4
20260504200202 81 135 4.0 11.0 0.00 0.00 0.00 100 1010.3
20260504200103 81 109 4.0 10.0 0.00 0.00 0.00 100 1010.4
20260504200002 81 120 4.0 7.0 0.00 0.00 0.00 100 1010.3
20260504195901 81 214 5.0 7.0 0.00 0.00 0.00 100 1010.4
20260504195802 81 180 4.0 9.0 0.00 0.00 0.00 100 1010.5
20260504195702 81 154 3.0 9.0 0.00 0.00 0.00 100 1010.5
20260504195602 81 140 3.0 9.0 0.00 0.00 0.00 100 1010.4
20260504195503 81 117 3.0 11.0 0.00 0.00 0.00 100 1010.4
20260504195402 81 161 3.0 11.0 0.00 0.00 0.00 100 1010.4
20260504195304 81 168 3.0 11.0 0.00 0.00 0.00 100 1010.4
20260504195203 81 116 3.0 11.0 0.00 0.00 0.00 100 1010.4
20260504195101 81 123 3.0 11.0 0.00 0.00 0.00 100 1010.5
20260504195002 80 114 4.0 11.0 0.00 0.00 0.00 100 1010.5
20260504194902 80 154 5.0 11.0 0.00 0.00 0.00 100 1010.5
20260504194802 80 165 3.0 11.0 0.00 0.00 0.00 100 1010.5
20260504194702 80 157 3.0 11.0 0.00 0.00 0.00 100 1010.6
20260504194602 80 171 7.0 11.0 0.00 0.00 0.00 100 1010.6
20260504194502 80 148 5.0 12.0 0.00 0.00 0.00 100 1010.7
20260504194402 80 137 5.0 12.0 0.00 0.00 0.00 100 1010.8
20260504194302 80 127 5.0 12.0 0.00 0.00 0.00 100 1010.6
20260504194203 80 100 3.0 12.0 0.00 0.00 0.00 100 1010.8
20260504194103 81 116 3.0 12.0 0.00 0.00 0.00 100 1010.8
20260504194002 81 114 4.0 12.0 0.00 0.00 0.00 100 1010.7
20260504193903 81 154 4.0 12.0 0.00 0.00 0.00 100 1010.7
20260504193803 81 140 2.0 12.0 0.00 0.00 0.00 100 1010.8
20260504193701 81 140 5.0 12.0 0.00 0.00 0.00 100 1010.8
20260504193602 81 166 5.0 12.0 0.00 0.00 0.00 100 1010.7
20260504193503 81 171 2.0 12.0 0.00 0.00 0.00 100 1010.7
20260504193403 81 220 2.0 12.0 0.00 0.00 0.00 100 1010.6
20260504193301 81 73 3.0 12.0 0.00 0.00 0.00 100 1010.7
20260504193203 81 133 4.0 12.0 0.00 0.00 0.00 100 1010.7
20260504193100 81 154 4.0 12.0 0.00 0.00 0.00 100 1010.8
20260504192959 81 133 4.0 12.0 0.00 0.00 0.00 100 1010.8
20260504192857 81 149 3.0 7.0 0.00 0.00 0.00 100 1010.8
20260504192757 81 196 3.0 7.0 0.00 0.00 0.00 100 1010.8
20260504192658 81 118 3.0 7.0 0.00 0.00 0.00 100 1010.9
20260504192559 81 185 3.0 7.0 0.00 0.00 0.00 100 1010.9
20260504192459 81 175 3.0 7.0 0.00 0.00 0.00 100 1011.0
20260504192358 81 169 4.0 7.0 0.00 0.00 0.00 100 1011.0
20260504192257 81 151 4.0 7.0 0.00 0.00 0.00 100 1011.0
20260504192158 81 140 3.0 7.0 0.00 0.00 0.00 100 1011.0
20260504192058 81 138 3.0 7.0 0.00 0.00 0.00 100 1011.1
20260504191959 81 169 3.0 7.0 0.00 0.00 0.00 100 1011.1
20260504191859 81 180 3.0 7.0 0.00 0.00 0.00 100 1011.2
20260504191757 81 121 3.0 7.0 0.00 0.00 0.00 100 1011.1
20260504191657 81 94 3.0 7.0 0.00 0.00 0.00 100 1011.1
20260504191559 81 173 4.0 7.0 0.00 0.00 0.00 100 1011.1
20260504191458 81 206 4.0 7.0 0.00 0.00 0.00 100 1011.1
20260504191358 81 197 4.0 7.0 0.00 0.00 0.00 100 1011.1
20260504191257 81 96 4.0 7.0 0.00 0.00 0.00 100 1011.1
20260504191157 81 169 2.0 6.0 0.00 0.00 0.00 100 1011.1
20260504191057 81 125 2.0 6.0 0.00 0.00 0.00 100 1011.1
20260504190959 81 103 4.0 6.0 0.00 0.00 0.00 100 1011.1
20260504190858 81 172 3.0 6.0 0.00 0.00 0.00 100 1011.2
20260504190758 81 154 2.0 6.0 0.00 0.00 0.00 100 1011.1
20260504190657 81 140 2.0 6.0 0.00 0.00 0.00 100 1011.2
20260504190559 81 130 2.0 6.0 0.00 0.00 0.00 100 1011.1
20260504190457 81 124 4.0 6.0 0.00 0.00 0.00 100 1011.2
20260504190358 81 114 4.0 6.0 0.00 0.00 0.00 100 1011.2
20260504190259 81 154 4.0 6.0 0.00 0.00 0.00 100 1011.2
20260504190158 80 85 4.0 10.0 0.00 0.00 0.00 100 1011.1
20260504190059 80 85 4.0 10.0 0.00 0.00 0.00 100 1011.2
20260504185932 80 85 4.0 10.0 0.00 0.00 0.00 100 1011.2
20260504185832 80 93 6.0 10.0 0.00 0.00 0.00 100 1011.2
20260504185732 80 175 5.0 12.0 0.00 0.00 0.00 100 1011.2
20260504185632 80 175 5.0 12.0 0.00 0.00 0.00 100 1011.2
20260504185533 80 175 5.0 12.0 0.00 0.00 0.00 100 1011.2
20260504185432 80 175 5.0 12.0 0.00 0.00 0.00 100 1011.2
20260504185332 80 175 5.0 12.0 0.00 0.00 0.00 100 1011.3
20260504185231 80 240 5.0 12.0 0.00 0.00 0.00 100 1011.3
20260504185132 80 214 5.0 12.0 0.00 0.00 0.00 100 1011.3
20260504185031 80 165 5.0 12.0 0.00 0.00 0.00 100 1011.3
20260504184930 80 182 5.0 12.0 0.00 0.00 0.00 100 1011.3
20260504184832 80 206 5.0 12.0 0.00 0.00 0.00 100 1011.3
20260504184732 81 158 3.0 11.0 0.00 0.00 0.00 100 1011.3
20260504184628 81 161 2.0 5.0 0.00 0.00 0.00 100 1011.2
20260504184525 81 154 2.0 5.0 0.00 0.00 0.00 100 1011.2
20260504184421 81 158 2.0 5.0 0.00 0.00 0.00 100 1011.3
20260504184320 81 159 3.0 5.0 0.00 0.00 0.00 100 1011.3
20260504184216 81 165 3.0 5.0 0.00 0.00 0.00 100 1011.3
20260504184104 80 144 3.0 5.0 0.00 0.00 0.00 100 1011.4
20260504184004 80 148 3.0 5.0 0.00 0.00 0.00 100 1011.3
20260504183902 80 162 3.0 5.0 0.00 0.00 0.00 100 1011.4
20260504183802 80 183 4.0 5.0 0.00 0.00 0.00 100 1011.3
20260504183702 80 210 3.0 5.0 0.00 0.00 0.00 100 1011.2
20260504183604 80 169 2.0 5.0 0.00 0.00 0.00 100 1011.3
20260504183504 80 154 2.0 7.0 0.00 0.00 0.00 100 1011.2
20260504183403 80 189 2.0 7.0 0.00 0.00 0.00 100 1011.3
20260504183304 80 161 2.0 7.0 0.00 0.00 0.00 100 1011.3
20260504183203 81 200 2.0 7.0 0.00 0.00 0.00 100 1011.3
20260504183104 81 185 5.0 7.0 0.00 0.00 0.00 100 1011.4
20260504183004 81 185 5.0 7.0 0.00 0.00 0.00 100 1011.3
20260504182903 81 185 5.0 7.0 0.00 0.00 0.00 100 1011.4
20260504182803 81 185 5.0 7.0 0.00 0.00 0.00 100 1011.4
20260504182704 81 185 5.0 7.0 0.00 0.00 0.00 100 1011.3
20260504182603 81 188 5.0 7.0 0.00 0.00 0.00 100 1011.3
20260504182503 81 178 4.0 7.0 0.00 0.00 0.00 100 1011.5
20260504182403 81 219 4.0 7.0 0.00 0.00 0.00 99 1011.4
20260504182304 82 140 3.0 7.0 0.00 0.00 0.00 100 1011.5
20260504182203 82 169 2.0 7.0 0.00 0.00 0.00 100 1011.6
20260504182103 81 159 2.0 7.0 0.00 0.00 0.00 98 1011.5
20260504182003 81 214 3.0 7.0 0.00 0.00 0.00 98 1011.5
20260504181903 81 233 3.0 7.0 0.00 0.00 0.00 87 1011.5
20260504181804 81 158 3.0 9.0 0.00 0.00 0.00 87 1011.6
20260504181703 81 169 4.0 9.0 0.00 0.00 0.00 86 1011.7
20260504181604 81 110 2.0 10.0 0.00 0.00 0.00 86 1011.6
20260504181504 81 169 2.0 10.0 0.00 0.00 0.00 86 1011.6
20260504181403 81 159 2.0 10.0 0.00 0.00 0.00 86 1011.6
20260504181302 81 137 4.0 10.0 0.00 0.00 0.00 91 1011.5
20260504181203 81 168 4.0 10.0 0.00 0.00 0.00 91 1011.6
20260504181103 81 168 3.0 10.0 0.00 0.00 0.00 90 1011.6
20260504181004 81 161 4.0 10.0 0.00 0.00 0.00 88 1011.6
20260504180904 80 199 5.0 10.0 0.00 0.00 0.00 88 1011.6
20260504180804 80 200 5.0 10.0 0.00 0.00 0.00 88 1011.7
20260504180701 80 127 3.0 10.0 0.00 0.00 0.00 94 1011.7
20260504180603 80 152 1.0 10.0 0.00 0.00 0.00 97 1011.7
20260504180505 80 262 2.0 10.0 0.00 0.00 0.00 97 1011.6
20260504180358 80 157 2.0 11.0 0.00 0.00 0.00 98 1011.8
20260504180256 80 154 2.0 11.0 0.00 0.00 0.00 89 1011.7
20260504180157 80 141 4.0 11.0 0.00 0.00 0.00 89 1011.8
20260504180056 80 151 3.0 11.0 0.00 0.00 0.00 90 1011.8
20260504175955 80 135 3.0 11.0 0.00 0.00 0.00 90 1011.8
20260504175856 80 188 3.0 11.0 0.00 0.00 0.00 84 1011.8
20260504175755 80 133 5.0 11.0 0.00 0.00 0.00 84 1011.8
20260504175656 80 220 6.0 11.0 0.00 0.00 0.00 89 1011.8
20260504175556 80 179 6.0 11.0 0.00 0.00 0.00 89 1011.8
20260504175455 80 162 7.0 15.0 0.00 0.00 0.00 90 1011.7
20260504175356 80 144 7.0 15.0 0.00 0.00 0.00 98 1011.7
20260504175255 80 219 7.0 15.0 0.00 0.00 0.00 98 1011.8
20260504175156 80 221 4.0 15.0 0.00 0.00 0.00 98 1011.8
20260504175055 80 157 3.0 15.0 0.00 0.00 0.00 98 1011.9
20260504174955 80 185 2.0 15.0 0.00 0.00 0.00 95 1011.9
20260504174857 79 162 3.0 15.0 0.00 0.00 0.00 95 1012.0
20260504174756 79 189 4.0 15.0 0.00 0.00 0.00 94 1011.9
20260504174656 79 180 5.0 15.0 0.00 0.00 0.00 92 1012.0
20260504174557 79 148 5.0 15.0 0.00 0.00 0.00 92 1011.9
20260504174456 79 159 5.0 13.0 0.00 0.00 0.00 93 1012.0
20260504174354 79 157 5.0 13.0 0.00 0.00 0.00 93 1011.9
20260504174256 79 255 5.0 13.0 0.00 0.00 0.00 93 1012.0
20260504174156 79 220 8.0 13.0 0.00 0.00 0.00 93 1012.0
20260504174057 79 212 9.0 13.0 0.00 0.00 0.00 99 1012.0
20260504173957 79 207 6.0 12.0 0.00 0.00 0.00 99 1012.0
20260504173856 79 157 5.0 9.0 0.00 0.00 0.00 99 1012.0
20260504173754 80 111 5.0 9.0 0.00 0.00 0.00 99 1012.0
20260504173656 80 166 3.0 9.0 0.00 0.00 0.00 100 1012.1
20260504173557 80 135 2.0 9.0 0.00 0.00 0.00 95 1012.0
20260504173455 80 138 3.0 14.0 0.00 0.00 0.00 95 1012.0
20260504173356 80 186 3.0 14.0 0.00 0.00 0.00 95 1012.0
20260504173256 80 164 3.0 14.0 0.00 0.00 0.00 95 1012.0
20260504173154 80 158 3.0 14.0 0.00 0.00 0.00 95 1012.1
20260504173057 80 138 4.0 14.0 0.00 0.00 0.00 97 1012.0
20260504172956 80 180 5.0 14.0 0.00 0.00 0.00 97 1012.1
20260504172854 79 226 4.0 14.0 0.00 0.00 0.00 100 1012.0
20260504172755 79 207 3.0 14.0 0.00 0.00 0.00 100 1012.2
20260504172656 79 183 5.0 14.0 0.00 0.00 0.00 98 1012.1
20260504172557 79 127 5.0 14.0 0.00 0.00 0.00 98 1012.2
20260504172455 79 176 5.0 12.0 0.00 0.00 0.00 98 1012.1
20260504172355 79 189 6.0 12.0 0.00 0.00 0.00 98 1012.2
20260504172254 79 195 6.0 12.0 0.00 0.00 0.00 97 1012.3
20260504172154 79 188 6.0 12.0 0.00 0.00 0.00 100 1012.3
20260504172055 79 151 6.0 12.0 0.00 0.00 0.00 100 1012.3
20260504171956 78 258 4.0 12.0 0.00 0.00 0.00 100 1012.4
20260504171856 78 189 4.0 12.0 0.00 0.00 0.00 100 1012.4
20260504171755 78 190 6.0 12.0 0.00 0.00 0.00 100 1012.3
20260504171655 78 165 6.0 12.0 0.00 0.00 0.00 100 1012.2
20260504171556 78 169 6.0 12.0 0.00 0.00 0.00 100 1012.4
20260504171455 78 166 5.0 12.0 0.00 0.00 0.00 100 1012.3
20260504171355 78 159 5.0 11.0 0.00 0.00 0.00 100 1012.4
20260504171255 79 195 6.0 11.0 0.00 0.00 0.00 100 1012.3
20260504171156 79 224 6.0 12.0 0.00 0.00 0.00 100 1012.5
20260504171056 79 207 4.0 12.0 0.00 0.00 0.00 100 1012.4
20260504170956 79 173 6.0 12.0 0.00 0.00 0.00 100 1012.5
20260504170854 79 207 5.0 12.0 0.00 0.00 0.00 100 1012.5
20260504170754 79 250 3.0 12.0 0.00 0.00 0.00 100 1012.4
20260504170655 79 149 5.0 12.0 0.00 0.00 0.00 100 1012.5
20260504170555 80 155 6.0 12.0 0.00 0.00 0.00 100 1012.5
20260504170455 80 188 6.0 12.0 0.00 0.00 0.00 100 1012.4
20260504170355 80 110 7.0 12.0 0.00 0.00 0.00 100 1012.5
20260504170254 80 120 6.0 12.0 0.00 0.00 0.00 100 1012.5
20260504170155 80 151 4.0 7.0 0.00 0.00 0.00 100 1012.6
20260504160353 76 190 6.0 14.0 0.00 0.00 0.00 100 1013.3
20260504160253 76 176 6.0 14.0 0.00 0.00 0.00 100 1013.3
20260504160153 76 209 4.0 13.0 0.00 0.00 0.00 100 1013.3
20260504151052 74 169 4.0 9.0 0.00 0.00 0.00 100 1013.3
20260504150953 74 212 5.0 9.0 0.00 0.00 0.00 100 1013.4
20260504150854 74 334 5.0 10.0 0.00 0.00 0.00 100 1013.4
20260504150751 74 157 4.0 10.0 0.00 0.00 0.00 100 1013.4
20260504150651 73 173 3.0 10.0 0.00 0.00 0.00 100 1013.4
20260504150553 73 173 4.0 10.0 0.00 0.00 0.00 100 1013.3
20260504150451 73 204 5.0 10.0 0.00 0.00 0.00 100 1013.4
20260504150353 73 210 5.0 10.0 0.00 0.00 0.00 100 1013.4
20260504150252 73 221 5.0 10.0 0.00 0.00 0.00 100 1013.4
20260504150152 73 169 6.0 10.0 0.00 0.00 0.00 100 1013.4
20260504141250 68 135 3.0 6.0 0.00 0.00 0.00 100 1013.3
20260504141152 68 148 2.0 5.0 0.00 0.00 0.00 100 1013.3
20260504141050 68 144 1.0 5.0 0.00 0.00 0.00 100 1013.3
20260504140950 68 152 0.0 5.0 0.00 0.00 0.00 100 1013.4
20260504140852 67 144 0.0 5.0 0.00 0.00 0.00 100 1013.3
20260504140751 67 144 0.0 5.0 0.00 0.00 0.00 100 1013.4
20260504140649 67 144 1.0 5.0 0.00 0.00 0.00 100 1013.4
20260504140550 67 144 2.0 5.0 0.00 0.00 0.00 100 1013.3
20260504140451 67 148 4.0 5.0 0.00 0.00 0.00 100 1013.3
20260504140350 67 158 3.0 5.0 0.00 0.00 0.00 100 1013.4
20260504140251 67 162 2.0 5.0 0.00 0.00 0.00 100 1013.4
20260504140149 67 154 1.0 3.0 0.00 0.00 0.00 100 1013.4
20260504130745 59 155 0.0 0.0 0.00 0.00 0.00 100 1013.6
20260504130644 59 155 0.0 0.0 0.00 0.00 0.00 100 1013.4
20260504130544 59 155 0.0 0.0 0.00 0.00 0.00 100 1013.5
20260504130445 58 155 0.0 0.0 0.00 0.00 0.00 100 1013.5
20260504130345 58 155 0.0 0.0 0.00 0.00 0.00 100 1013.4
20260504130243 58 155 0.0 0.0 0.00 0.00 0.00 100 1013.4
20260504130144 58 155 0.0 0.0 0.00 0.00 0.00 100 1013.5
20260504120303 56 155 0.0 0.0 0.00 0.00 0.00 100 1013.2
20260504120203 56 155 0.0 0.0 0.00 0.00 0.00 100 1013.1
20260504110640 56 155 0.0 0.0 0.00 0.00 0.00 100 1013.1
20260504110541 56 155 0.0 0.0 0.00 0.00 0.00 100 1013.1
20260504110439 0 0.0 0.0 0.00 0.00 0.00 1013.0
20260504110340 0 0.0 0.0 0.00 0.00 0.00 1013.0
20260504110238 0 0.0 0.0 0.00 0.00 0.00 1012.9
20260504110139 0 0.0 0.0 0.00 0.00 0.00 1013.0
20260504100604 57 155 0.0 0.0 0.00 0.00 0.00 100 1013.1
20260504100503 57 155 0.0 0.0 0.00 0.00 0.00 100 1013.0
20260504100402 57 155 0.0 0.0 0.00 0.00 0.00 100 1013.1
20260504100303 57 155 0.0 0.0 0.00 0.00 0.00 100 1013.2
20260504100203 57 155 0.0 0.0 0.00 0.00 0.00 100 1013.2
20260504100104 57 155 0.0 0.0 0.00 0.00 0.00 100 1013.2
20260504090126 58 155 0.0 0.0 0.00 0.00 0.00 100 1013.4
20260504081925 58 155 0.0 0.0 0.00 0.00 0.00 100 1013.6
20260504081825 58 155 0.0 0.0 0.00 0.00 0.00 100 1013.6
20260504081724 58 155 0.0 0.0 0.00 0.00 0.00 100 1013.6
20260504081624 58 155 0.0 0.0 0.00 0.00 0.00 100 1013.6
20260504081525 58 155 0.0 0.0 0.00 0.00 0.00 100 1013.7
20260504081424 58 155 0.0 0.0 0.00 0.00 0.00 100 1013.8
20260504081325 58 155 0.0 0.0 0.00 0.00 0.00 100 1013.7
20260504081226 58 155 0.0 0.0 0.00 0.00 0.00 100 1013.8
20260504081125 58 155 0.0 0.0 0.00 0.00 0.00 100 1013.8
20260504081025 58 155 0.0 0.0 0.00 0.00 0.00 100 1013.8
20260504080925 58 155 0.0 0.0 0.00 0.00 0.00 100 1013.8
20260504080824 58 155 0.0 0.0 0.00 0.00 0.00 100 1013.8
20260504080726 58 155 0.0 0.0 0.00 0.00 0.00 100 1013.9
20260504080624 58 155 0.0 0.0 0.00 0.00 0.00 100 1013.9
20260504080525 58 155 0.0 0.0 0.00 0.00 0.00 100 1013.9
20260504080425 58 155 0.0 0.0 0.00 0.00 0.00 100 1013.9
20260504080327 58 155 0.0 0.0 0.00 0.00 0.00 100 1013.9
20260504080225 58 155 0.0 0.0 0.00 0.00 0.00 100 1014.0
20260504080126 58 155 0.0 0.0 0.00 0.00 0.00 100 1013.9
20260504070324 59 155 0.0 0.0 0.00 0.00 0.00 100 1014.5
20260504070224 59 155 0.0 0.0 0.00 0.00 0.00 100 1014.6
20260504070123 59 155 0.0 0.0 0.00 0.00 0.00 100 1014.6
20260504060203 59 155 0.0 0.0 0.00 0.00 0.00 100 1015.0
20260504050703 60 155 1.0 2.0 0.00 0.00 0.00 100 1015.6
20260504050602 60 155 0.0 1.0 0.00 0.00 0.00 100 1015.7
20260504050503 60 155 0.0 1.0 0.00 0.00 0.00 100 1015.6
20260504050402 60 155 0.0 0.0 0.00 0.00 0.00 100 1015.6
20260504050302 60 155 0.0 0.0 0.00 0.00 0.00 100 1015.6
20260504050202 60 155 0.0 0.0 0.00 0.00 0.00 100 1015.6
20260504050005 60 155 0.0 0.0 0.00 0.00 0.00 100 1015.6
20260504045901 60 155 0.0 0.0 0.00 0.00 0.00 100 1015.6
20260504045802 60 155 0.0 0.0 0.00 0.00 0.00 100 1015.6
20260504045702 60 155 0.0 0.0 0.00 0.00 0.00 100 1015.5
20260504045602 60 155 0.0 0.0 0.00 0.00 0.00 100 1015.4
20260504045503 60 155 0.0 0.0 0.00 0.00 0.00 100 1015.5
20260504045402 60 155 0.0 0.0 0.00 0.00 0.00 100 1015.4
20260504045304 60 155 0.0 0.0 0.00 0.00 0.00 100 1015.4
20260504045203 60 155 0.0 0.0 0.00 0.00 0.00 100 1015.4
20260504045103 60 155 0.0 0.0 0.00 0.00 0.00 100 1015.5